AXY42E EDDF-LPPT

Flight info

Callsign AXY42E
Flight time N/A
Altitude 40000
Route SOBRA2L/18 SOBRA Y180 DIK UN857 TOLVU/N0466F390 DCT RAPOR DCT GIMER/N0456F350 DCT ESTOC UT300 PON UN872 GODIX/N0444F310 UN872 DIDAK/N0462F390 UN872 TERPO/N0453F350 UN872 ERIGA UZ218 FUJTI/N0462F390 DCT ATLEN DCT ABUPI DCT XAMAX
Aircraft A343/H-SDE2E3FGHIJ4J5M1RWXY/LB1D1

Departure

Time 2026-05-06 16:33
Airport Frankfurt Main Airport (EDDF)

Arrival

Time N/A
Airport Lisbon Humberto Delgado Airport (LPPT)
Time Latitude Longitude Altitude Speed Heading
2026-05-06 15:58 50.03890 8.54881 354 ft 0 kts 159°
2026-05-06 16:26 50.03869 8.54894 361 ft 6 kts 159°
2026-05-06 16:26 50.03827 8.54913 358 ft 5 kts 176°
2026-05-06 16:26 50.03805 8.54899 361 ft 5 kts 213°
2026-05-06 16:27 50.03779 8.54827 357 ft 8 kts 251°
2026-05-06 16:27 50.03761 8.54750 360 ft 7 kts 250°
2026-05-06 16:27 50.03741 8.54663 355 ft 11 kts 250°
2026-05-06 16:27 50.03711 8.54535 355 ft 13 kts 250°
2026-05-06 16:28 50.03680 8.54407 353 ft 12 kts 249°
2026-05-06 16:28 50.03661 8.54329 351 ft 11 kts 249°
2026-05-06 16:28 50.03630 8.54197 354 ft 8 kts 250°
2026-05-06 16:28 50.03611 8.54118 351 ft 8 kts 250°
2026-05-06 16:29 50.03585 8.54009 353 ft 14 kts 249°
2026-05-06 16:29 50.03541 8.53829 350 ft 21 kts 250°
2026-05-06 16:29 50.03492 8.53621 349 ft 16 kts 249°
2026-05-06 16:29 50.03455 8.53466 348 ft 14 kts 250°
2026-05-06 16:30 50.03423 8.53332 347 ft 12 kts 250°
2026-05-06 16:30 50.03403 8.53247 335 ft 14 kts 249°
2026-05-06 16:30 50.03355 8.53050 335 ft 16 kts 250°
2026-05-06 16:30 50.03315 8.52881 334 ft 17 kts 249°
2026-05-06 16:31 50.03281 8.52737 334 ft 9 kts 250°
2026-05-06 16:31 50.03270 8.52645 339 ft 7 kts 271°
2026-05-06 16:31 50.03261 8.52610 333 ft 2 kts 229°
2026-05-06 16:31 50.03243 8.52597 336 ft 1 kts 185°
2026-05-06 16:32 50.03242 8.52597 336 ft 0 kts 183°
2026-05-06 16:32 50.03071 8.52590 339 ft 55 kts 180°
2026-05-06 16:32 50.02786 8.52598 334 ft 88 kts 178°
2026-05-06 16:32 50.01881 8.52610 338 ft 143 kts 179°
2026-05-06 16:33 50.00788 8.52629 411 ft 176 kts 176°
2026-05-06 16:33 49.99017 8.52660 977 ft 194 kts 175°
2026-05-06 16:33 49.97672 8.52856 1625 ft 195 kts 173°
2026-05-06 16:34 49.94687 8.53283 2427 ft 233 kts 174°
2026-05-06 16:34 49.93086 8.53466 3453 ft 226 kts 175°
2026-05-06 16:34 49.91532 8.53615 4449 ft 224 kts 175°
2026-05-06 16:34 49.89986 8.53739 5200 ft 215 kts 176°
2026-05-06 16:35 49.88451 8.53840 5671 ft 229 kts 178°
2026-05-06 16:35 49.86811 8.53556 6322 ft 241 kts 192°
2026-05-06 16:35 49.85172 8.52783 6856 ft 255 kts 196°
2026-05-06 16:35 49.83486 8.51861 7551 ft 261 kts 197°
2026-05-06 16:36 49.81758 8.50899 8228 ft 267 kts 197°
2026-05-06 16:36 49.79995 8.49913 8954 ft 270 kts 197°
2026-05-06 16:36 49.78269 8.48671 9587 ft 277 kts 208°
2026-05-06 16:36 49.76779 8.46746 10168 ft 284 kts 220°
2026-05-06 16:37 49.75413 8.44404 10362 ft 303 kts 230°
2026-05-06 16:37 49.74699 8.42486 10404 ft 319 kts 243°
2026-05-06 16:37 49.74176 8.37850 10792 ft 339 kts 268°
2026-05-06 16:37 49.74511 8.34226 11389 ft 343 kts 277°
2026-05-06 16:38 49.74918 8.31801 11714 ft 345 kts 281°
2026-05-06 16:38 49.75638 8.28263 12115 ft 353 kts 283°
2026-05-06 16:38 49.76448 8.24617 12724 ft 356 kts 283°
2026-05-06 16:38 49.77247 8.20955 13316 ft 360 kts 283°
2026-05-06 16:39 49.78013 8.17230 13841 ft 365 kts 282°
2026-05-06 16:39 49.78764 8.13387 14412 ft 368 kts 282°
2026-05-06 16:39 49.79466 8.09650 14995 ft 369 kts 280°
2026-05-06 16:39 49.80163 8.05815 15528 ft 372 kts 280°
2026-05-06 16:40 49.80855 8.01926 15961 ft 375 kts 278°
2026-05-06 16:40 49.81515 7.98036 16130 ft 373 kts 279°
2026-05-06 16:40 49.82257 7.93852 16406 ft 380 kts 280°
2026-05-06 16:40 49.82934 7.90135 16877 ft 383 kts 281°
2026-05-06 16:41 49.83712 7.85887 17443 ft 386 kts 280°
2026-05-06 16:41 49.84437 7.81892 17918 ft 390 kts 280°
2026-05-06 16:41 49.85169 7.77823 18358 ft 394 kts 280°
2026-05-06 16:41 49.85906 7.73720 18810 ft 396 kts 279°
2026-05-06 16:42 49.86640 7.69597 19326 ft 397 kts 279°
2026-05-06 16:42 49.87322 7.65442 19834 ft 398 kts 278°
2026-05-06 16:42 49.87954 7.61300 20280 ft 400 kts 277°